Location: Okie-Tex Star Party
(36.8978°N, 102.9520°W)
Time: 09:01:48
(UTC-05:00)

Oscar 16 - Visible Passes

Search period start: 28 March 2017 00:00
Search period end: 07 April 2017 00:00
Orbit: 774 x 791 km, 98.6° (Epoch: 26 March)

Date Brightness Start Highest point End Pass type
(mag) Time Alt. Az. Time Alt. Az. Time Alt. Az.
28 Mar 13.3 04:10:54 10° N 04:11:21 12° N 04:11:21 12° N visible
29 Mar 13.5 03:39:02 10° NNE 03:39:26 12° NNE 03:39:26 12° NNE visible
30 Mar 13.2 04:47:49 10° NNW 04:48:05 11° NNW 04:48:05 11° NNW visible
31 Mar 13.1 04:15:22 10° N 04:16:10 14° N 04:16:10 14° N visible
01 Apr 13.3 03:43:27 10° N 03:44:15 15° N 03:44:15 15° N visible
02 Apr 13.5 03:11:57 10° NNE 03:12:20 12° NNE 03:12:20 12° NNE visible
02 Apr 13.0 04:52:24 10° NNW 04:52:55 12° NNW 04:52:55 12° NNW visible
03 Apr 12.9 04:19:51 10° N 04:21:00 16° NNW 04:21:00 16° NNW visible
04 Apr 13.0 03:47:52 10° N 03:49:04 17° N 03:49:04 17° N visible
05 Apr 13.3 03:16:18 10° NNE 03:17:09 15° NNE 03:17:09 15° NNE visible
05 Apr 13.0 04:57:01 10° NNW 04:57:44 12° NNW 04:57:44 12° NNW visible
06 Apr 12.8 04:24:20 10° N 04:25:49 18° NNW 04:25:49 18° NNW visible
